| time (UTC) | temp F | wind direction | speed MPH | gust MPH | rain 1hr in | rain 24hr in | rain mn in | humidity % | barometer mb |
| 20260503221055 | 55 | 207 | 2.0 | 4.0 | 0.00 | 0.43 | 0.00 | 97 | 1012.8 |
| 20260503220553 | 55 | 202 | 2.0 | 3.0 | 0.00 | 0.43 | 0.00 | 96 | 1012.7 |
| 20260503220051 | 55 | 205 | 1.0 | 3.0 | 0.00 | 0.43 | 0.00 | 96 | 1012.6 |
| 20260503215550 | 55 | 183 | 1.0 | 3.0 | 0.00 | 0.43 | 0.43 | 96 | 1012.6 |
| 20260503215049 | 56 | 193 | 1.0 | 2.0 | 0.00 | 0.43 | 0.43 | 96 | 1012.6 |
| 20260503214621 | 56 | 187 | 1.0 | 2.0 | 0.00 | 0.43 | 0.43 | 96 | 1012.5 |
| 20260503213551 | 56 | 187 | 2.0 | 3.0 | 0.00 | 0.43 | 0.43 | 96 | 1012.5 |
| 20260503213046 | 56 | 177 | 2.0 | 5.0 | 0.00 | 0.44 | 0.43 | 96 | 1012.6 |
| 20260503212547 | 56 | 192 | 2.0 | 5.0 | 0.00 | 0.46 | 0.43 | 96 | 1012.5 |
| 20260503212049 | 56 | 181 | 2.0 | 5.0 | 0.00 | 0.49 | 0.43 | 96 | 1012.5 |
| 20260503211548 | 56 | 167 | 2.0 | 5.0 | 0.00 | 0.50 | 0.43 | 96 | 1012.6 |
| 20260503211047 | 56 | 184 | 2.0 | 5.0 | 0.00 | 0.51 | 0.43 | 96 | 1012.6 |
| 20260503210543 | 56 | 177 | 1.0 | 4.0 | 0.00 | 0.53 | 0.43 | 96 | 1012.5 |
| 20260503210046 | 56 | 183 | 2.0 | 4.0 | 0.00 | 0.56 | 0.43 | 96 | 1012.5 |
| 20260503205544 | 57 | 210 | 2.0 | 4.0 | 0.00 | 0.61 | 0.43 | 96 | 1012.5 |
| 20260503205042 | 57 | 206 | 3.0 | 5.0 | 0.00 | 0.67 | 0.43 | 96 | 1012.4 |
| 20260503204542 | 57 | 176 | 3.0 | 5.0 | 0.00 | 0.84 | 0.43 | 96 | 1012.3 |
| 20260503204043 | 57 | 166 | 3.0 | 5.0 | 0.00 | 1.08 | 0.43 | 96 | 1012.4 |
| 20260503203656 | 57 | 174 | 3.0 | 6.0 | 0.00 | 1.09 | 0.43 | 96 | 1012.4 |
| 20260503202044 | 57 | 163 | 3.0 | 7.0 | 0.00 | 1.09 | 0.43 | 96 | 1012.6 |
| 20260503201542 | 57 | 156 | 3.0 | 7.0 | 0.00 | 1.09 | 0.43 | 96 | 1012.6 |
| 20260503201041 | 57 | 166 | 4.0 | 8.0 | 0.00 | 1.09 | 0.43 | 96 | 1012.5 |
| 20260503200543 | 57 | 154 | 3.0 | 8.0 | 0.00 | 1.09 | 0.43 | 96 | 1012.4 |
| 20260503200042 | 57 | 169 | 3.0 | 5.0 | 0.00 | 1.09 | 0.43 | 96 | 1012.4 |
| 20260503195542 | 57 | 171 | 3.0 | 5.0 | 0.00 | 1.09 | 0.43 | 96 | 1012.5 |
| 20260503195044 | 57 | 172 | 3.0 | 5.0 | 0.00 | 1.09 | 0.43 | 96 | 1012.3 |
| 20260503194542 | 57 | 180 | 3.0 | 6.0 | 0.00 | 1.09 | 0.43 | 96 | 1012.4 |
| 20260503194043 | 57 | 168 | 3.0 | 6.0 | 0.01 | 1.09 | 0.43 | 96 | 1012.2 |
| 20260503193542 | 57 | 155 | 4.0 | 7.0 | 0.01 | 1.09 | 0.43 | 96 | 1012.1 |
| 20260503193043 | 57 | 162 | 4.0 | 8.0 | 0.02 | 1.09 | 0.43 | 96 | 1012.1 |
| 20260503192546 | 57 | 204 | 5.0 | 8.0 | 0.02 | 1.09 | 0.43 | 96 | 1012.0 |
| 20260503192042 | 57 | 171 | 5.0 | 9.0 | 0.02 | 1.09 | 0.43 | 96 | 1011.9 |
| 20260503191614 | 58 | 182 | 4.0 | 9.0 | 0.02 | 1.09 | 0.43 | 95 | 1011.8 |
| 20260503190545 | 58 | 178 | 5.0 | 9.0 | 0.02 | 1.09 | 0.43 | 95 | 1011.7 |
| 20260503190047 | 58 | 163 | 5.0 | 9.0 | 0.02 | 1.09 | 0.43 | 95 | 1011.7 |
| 20260503185542 | 58 | 169 | 4.0 | 8.0 | 0.02 | 1.09 | 0.43 | 95 | 1011.7 |
| 20260503185041 | 58 | 166 | 2.0 | 7.0 | 0.02 | 1.09 | 0.43 | 95 | 1011.7 |
| 20260503184542 | 59 | 162 | 2.0 | 5.0 | 0.02 | 1.09 | 0.43 | 95 | 1011.4 |
| 20260503184041 | 59 | 170 | 3.0 | 9.0 | 0.02 | 1.09 | 0.43 | 95 | 1011.4 |
| 20260503183542 | 59 | 150 | 4.0 | 9.0 | 0.02 | 1.09 | 0.43 | 95 | 1011.5 |
| 20260503183127 | 59 | 171 | 4.0 | 8.0 | 0.02 | 1.08 | 0.42 | 95 | 1011.5 |
| 20260503182038 | 59 | 187 | 4.0 | 8.0 | 0.02 | 1.08 | 0.42 | 95 | 1011.5 |
| 20260503181537 | 60 | 183 | 3.0 | 8.0 | 0.02 | 1.08 | 0.42 | 95 | 1011.5 |
| 20260503181038 | 60 | 173 | 3.0 | 7.0 | 0.02 | 1.08 | 0.42 | 95 | 1011.4 |
| 20260503180538 | 60 | 170 | 3.0 | 7.0 | 0.02 | 1.08 | 0.42 | 95 | 1011.5 |
| 20260503180041 | 60 | 150 | 3.0 | 6.0 | 0.01 | 1.07 | 0.41 | 95 | 1011.4 |
| 20260503175537 | 61 | 185 | 3.0 | 6.0 | 0.01 | 1.07 | 0.41 | 95 | 1011.5 |
| 20260503175038 | 61 | 180 | 3.0 | 6.0 | 0.01 | 1.07 | 0.41 | 95 | 1011.4 |
| 20260503174537 | 61 | 163 | 3.0 | 6.0 | 0.02 | 1.07 | 0.41 | 95 | 1011.4 |
| 20260503174036 | 61 | 145 | 3.0 | 6.0 | 0.03 | 1.07 | 0.41 | 95 | 1011.4 |
| 20260503173534 | 61 | 175 | 3.0 | 6.0 | 0.02 | 1.06 | 0.40 | 95 | 1011.5 |
| 20260503173035 | 61 | 172 | 2.0 | 6.0 | 0.03 | 1.06 | 0.40 | 95 | 1011.3 |
| 20260503172534 | 61 | 173 | 2.0 | 6.0 | 0.04 | 1.06 | 0.40 | 94 | 1011.2 |
| 20260503172030 | 61 | 207 | 2.0 | 4.0 | 0.04 | 1.06 | 0.40 | 94 | 1011.1 |
| 20260503171533 | 61 | 195 | 2.0 | 6.0 | 0.04 | 1.06 | 0.40 | 94 | 1011.0 |
| 20260503171032 | 61 | 207 | 2.0 | 6.0 | 0.04 | 1.06 | 0.40 | 94 | 1010.9 |
| 20260503170545 | 61 | 193 | 2.0 | 6.0 | 0.04 | 1.06 | 0.40 | 94 | 1011.0 |
| 20260503150514 | 61 | 179 | 1.0 | 4.0 | 0.09 | 1.02 | 0.36 | 97 | 1011.0 |
| 20260503131006 | 60 | 170 | 3.0 | 7.0 | 0.02 | 0.93 | 0.27 | 96 | 1011.7 |
| 20260503130504 | 60 | 174 | 3.0 | 7.0 | 0.02 | 0.93 | 0.27 | 96 | 1011.6 |
| 20260503090503 | 62 | 233 | 6.0 | 13.0 | 0.00 | 0.67 | 0.01 | 94 | 1011.8 |
| 20260503081509 | 61 | 208 | 2.0 | 6.0 | 0.00 | 0.67 | 0.01 | 97 | 1011.5 |
| 20260503081013 | 61 | 167 | 3.0 | 6.0 | 0.00 | 0.67 | 0.01 | 97 | 1011.6 |
| 20260503080530 | 61 | 185 | 3.0 | 6.0 | 0.00 | 0.67 | 0.01 | 97 | 1011.5 |
| 20260503072502 | 60 | 170 | 3.0 | 5.0 | 0.00 | 0.67 | 0.01 | 98 | 1011.3 |
| 20260503072004 | 60 | 180 | 3.0 | 7.0 | 0.00 | 0.67 | 0.01 | 98 | 1011.4 |
| 20260503071505 | 60 | 149 | 2.0 | 7.0 | 0.00 | 0.67 | 0.01 | 98 | 1011.3 |
| 20260503071003 | 60 | 162 | 3.0 | 7.0 | 0.00 | 0.67 | 0.01 | 98 | 1011.2 |
| 20260503070503 | 60 | 214 | 3.0 | 9.0 | 0.00 | 0.67 | 0.01 | 98 | 1011.1 |
| 20260503054951 | 58 | 130 | 1.0 | 4.0 | 0.00 | 0.68 | 0.01 | 98 | 1011.3 |
| 20260503054454 | 58 | 114 | 2.0 | 4.0 | 0.00 | 0.68 | 0.01 | 98 | 1011.3 |
| 20260503053950 | 58 | 114 | 1.0 | 4.0 | 0.00 | 0.68 | 0.01 | 98 | 1011.4 |
| 20260503053451 | 58 | 153 | 1.0 | 5.0 | 0.00 | 0.68 | 0.01 | 98 | 1011.4 |
| 20260503052953 | 58 | 127 | 1.0 | 5.0 | 0.00 | 0.68 | 0.01 | 98 | 1011.4 |
| 20260503052529 | 58 | 102 | 1.0 | 4.0 | 0.00 | 0.68 | 0.01 | 98 | 1011.5 |
| 20260503051451 | 57 | 131 | 0.0 | 2.0 | 0.00 | 0.68 | 0.01 | 98 | 1011.6 |
| 20260503050949 | 57 | 131 | 1.0 | 3.0 | 0.00 | 0.68 | 0.01 | 98 | 1011.5 |
| 20260503050448 | 57 | 131 | 1.0 | 3.0 | 0.00 | 0.68 | 0.01 | 98 | 1011.5 |
| 20260503045948 | 57 | 161 | 1.0 | 3.0 | 0.00 | 0.68 | 0.01 | 98 | 1011.6 |
| 20260503045447 | 57 | 112 | 1.0 | 3.0 | 0.00 | 0.68 | 0.01 | 98 | 1011.7 |
| 20260503045018 | 57 | 112 | 1.0 | 2.0 | 0.00 | 0.68 | 0.01 | 98 | 1011.6 |
| 20260503044111 | 57 | 112 | 1.0 | 2.0 | 0.00 | 0.68 | 0.01 | 98 | 1011.5 |
| 20260503042446 | 57 | 112 | 1.0 | 4.0 | 0.00 | 0.68 | 0.01 | 97 | 1011.6 |
| 20260503041944 | 57 | 112 | 1.0 | 4.0 | 0.00 | 0.68 | 0.01 | 98 | 1011.4 |
| 20260503041446 | 57 | 105 | 1.0 | 3.0 | 0.00 | 0.68 | 0.01 | 98 | 1011.5 |
| 20260503040945 | 57 | 106 | 1.0 | 3.0 | 0.00 | 0.68 | 0.01 | 98 | 1011.5 |
| 20260503040444 | 57 | 106 | 1.0 | 4.0 | 0.00 | 0.68 | 0.01 | 98 | 1011.5 |
| 20260503035942 | 57 | 106 | 1.0 | 4.0 | 0.00 | 0.68 | 0.01 | 98 | 1011.4 |
| 20260503035513 | 57 | 106 | 2.0 | 4.0 | 0.00 | 0.68 | 0.01 | 98 | 1011.6 |
| 20260503034512 | 57 | 100 | 1.0 | 6.0 | 0.00 | 0.68 | 0.01 | 98 | 1011.7 |
| 20260503033450 | 57 | 87 | 4.0 | 8.0 | 0.00 | 0.68 | 0.01 | 98 | 1011.5 |
| 20260503032939 | 57 | 81 | 5.0 | 8.0 | 0.00 | 0.68 | 0.01 | 98 | 1011.5 |
| 20260503032440 | 57 | 70 | 3.0 | 7.0 | 0.00 | 0.68 | 0.01 | 97 | 1011.6 |
| 20260503031939 | 57 | 94 | 1.0 | 3.0 | 0.00 | 0.68 | 0.01 | 97 | 1011.9 |
| 20260503031437 | 58 | 184 | 1.0 | 3.0 | 0.00 | 0.68 | 0.01 | 97 | 1012.1 |
| 20260503030938 | 58 | 219 | 1.0 | 3.0 | 0.00 | 0.68 | 0.01 | 97 | 1012.2 |
| 20260503030446 | 58 | 216 | 2.0 | 5.0 | 0.01 | 0.68 | 0.01 | 97 | 1012.3 |
| 20260503025937 | 58 | 110 | 2.0 | 5.0 | 0.01 | 0.68 | 0.01 | 97 | 1012.2 |
| 20260503025437 | 58 | 102 | 1.0 | 3.0 | 0.01 | 0.68 | 0.01 | 97 | 1012.5 |
| 20260503024934 | 58 | 71 | 2.0 | 3.0 | 0.01 | 0.68 | 0.01 | 97 | 1012.4 |
| 20260503024433 | 58 | 193 | 2.0 | 4.0 | 0.01 | 0.68 | 0.01 | 97 | 1012.7 |
| 20260503023933 | 58 | 175 | 2.0 | 4.0 | 0.01 | 0.68 | 0.01 | 97 | 1012.8 |
| 20260503023438 | 58 | 185 | 1.0 | 3.0 | 0.01 | 0.68 | 0.01 | 97 | 1012.7 |
| 20260503022934 | 58 | 170 | 1.0 | 3.0 | 0.01 | 0.68 | 0.01 | 97 | 1012.8 |
| 20260503022432 | 58 | 216 | 2.0 | 3.0 | 0.01 | 0.68 | 0.01 | 97 | 1012.9 |
| 20260503021934 | 58 | 203 | 2.0 | 3.0 | 0.01 | 0.68 | 0.01 | 97 | 1013.0 |
| 20260503021433 | 58 | 176 | 2.0 | 4.0 | 0.01 | 0.68 | 0.01 | 97 | 1013.0 |
| 20260503020933 | 58 | 209 | 2.0 | 5.0 | 0.01 | 0.68 | 0.01 | 97 | 1012.9 |
| 20260503020439 | 58 | 170 | 2.0 | 5.0 | 0.00 | 0.67 | 0.00 | 97 | 1012.9 |
| 20260503015933 | 58 | 182 | 1.0 | 3.0 | 0.00 | 0.67 | 0.00 | 97 | 1013.0 |
| 20260503015433 | 58 | 175 | 1.0 | 3.0 | 0.00 | 0.67 | 0.00 | 97 | 1013.0 |
| 20260503014935 | 57 | 166 | 1.0 | 2.0 | 0.00 | 0.67 | 0.00 | 97 | 1013.0 |
| 20260503014510 | 57 | 166 | 1.0 | 3.0 | 0.00 | 0.67 | 0.00 | 97 | 1012.9 |
| 20260503013424 | 57 | 161 | 1.0 | 4.0 | 0.00 | 0.67 | 0.00 | 97 | 1012.9 |
| 20260503012925 | 57 | 161 | 1.0 | 4.0 | 0.00 | 0.67 | 0.00 | 97 | 1012.9 |
| 20260503012428 | 57 | 120 | 1.0 | 5.0 | 0.00 | 0.67 | 0.00 | 97 | 1012.8 |
| 20260503011957 | 57 | 120 | 1.0 | 5.0 | 0.00 | 0.67 | 0.00 | 97 | 1012.8 |
| 20260503010925 | 57 | 119 | 1.0 | 5.0 | 0.00 | 0.67 | 0.00 | 97 | 1012.8 |
| 20260503010429 | 57 | 120 | 2.0 | 5.0 | 0.00 | 0.67 | 0.00 | 97 | 1012.8 |
| 20260503010038 | 57 | 111 | 2.0 | 4.0 | 0.00 | 0.67 | 0.00 | 97 | 1012.9 |
| 20260503004558 | 57 | 91 | 1.0 | 2.0 | 0.00 | 0.67 | 0.00 | 97 | 1013.0 |
| 20260503002451 | 57 | 58 | 1.0 | 3.0 | 0.00 | 0.67 | 0.00 | 96 | 1013.0 |
| 20260503001417 | 57 | 57 | 3.0 | 4.0 | 0.00 | 0.67 | 0.00 | 96 | 1012.9 |
| 20260503000915 | 57 | 74 | 3.0 | 6.0 | 0.00 | 0.67 | 0.00 | 96 | 1013.0 |
| 20260503000412 | 57 | 79 | 3.0 | 7.0 | 0.00 | 0.67 | 0.00 | 96 | 1013.1 |
| 20260502235910 | 57 | 63 | 3.0 | 7.0 | 0.00 | 0.67 | 0.00 | 96 | 1013.0 |
| 20260502235438 | 58 | 82 | 3.0 | 6.0 | 0.00 | 0.67 | 0.00 | 96 | 1013.2 |
| 20260502234411 | 58 | 86 | 4.0 | 6.0 | 0.00 | 0.67 | 0.00 | 96 | 1013.2 |
| 20260502233910 | 58 | 67 | 3.0 | 6.0 | 0.00 | 0.67 | 0.00 | 96 | 1013.4 |
| 20260502233408 | 58 | 66 | 3.0 | 7.0 | 0.00 | 0.67 | 0.00 | 96 | 1013.4 |
| 20260502232935 | 58 | 63 | 3.0 | 9.0 | 0.00 | 0.67 | 0.00 | 96 | 1013.5 |
| 20260502231911 | 58 | 68 | 2.0 | 6.0 | 0.00 | 0.67 | 0.00 | 96 | 1013.8 |
| 20260502231409 | 58 | 123 | 1.0 | 5.0 | 0.00 | 0.67 | 0.00 | 96 | 1013.9 |
| 20260502230908 | 58 | 101 | 2.0 | 7.0 | 0.00 | 0.67 | 0.00 | 96 | 1013.8 |
| 20260502230419 | 58 | 87 | 5.0 | 9.0 | 0.00 | 0.67 | 0.00 | 95 | 1013.7 |
| 20260502225908 | 58 | 41 | 5.0 | 9.0 | 0.00 | 0.67 | 0.00 | 95 | 1013.7 |
| 20260502225409 | 58 | 58 | 4.0 | 8.0 | 0.00 | 0.67 | 0.00 | 95 | 1013.8 |
| 20260502224910 | 58 | 142 | 4.0 | 8.0 | 0.00 | 0.67 | 0.00 | 95 | 1014.0 |
| 20260502224409 | 58 | 80 | 4.0 | 8.0 | 0.00 | 0.67 | 0.00 | 95 | 1013.8 |
| 20260502223937 | 58 | 66 | 4.0 | 8.0 | 0.00 | 0.67 | 0.00 | 95 | 1014.0 |
| 20260502222909 | 58 | 59 | 3.0 | 7.0 | 0.01 | 0.67 | 0.00 | 95 | 1014.0 |
| 20260502222436 | 58 | 79 | 4.0 | 7.0 | 0.03 | 0.67 | 0.00 | 94 | 1014.0 |
| 20260502221407 | 58 | 54 | 3.0 | 6.0 | 0.07 | 0.67 | 0.00 | 94 | 1014.0 |